This is the latest recevied weather packets stored in our database for station/object KY4GW. If no packets are shown the sender has not sent any weather packets the latest 10 day(s).
| Time | Temp. | Humidity | Pressure | Rain* | Wind** | Luminosity | Snow |
|---|---|---|---|---|---|---|---|
| 1777828795 | 15.56° C | 36% | 1022.8 hPa | 0 mm | - | 879 W/m² | - |
| 1777828491 | 15.56° C | 38% | 1022.8 hPa | 0 mm | - | 879 W/m² | - |
| 1777828189 | 15.56° C | 41% | 1022.8 hPa | 0 mm | - | 880 W/m² | - |
| 1777827885 | 15.56° C | 36% | 1022.8 hPa | 0 mm | - | 879 W/m² | - |
| 1777827582 | 15.56° C | 41% | 1022.8 hPa | 0 mm | - | 875 W/m² | - |
| 1777827280 | 15° C | 42% | 1022.8 hPa | 0 mm | - | 870 W/m² | - |
| 1777826975 | 14.44° C | 43% | 1022.8 hPa | 0 mm | - | 869 W/m² | - |
| 1777826673 | 15.56° C | 39% | 1023.1 hPa | 0 mm | - | 864 W/m² | - |
| 1777826369 | 15° C | 38% | 1023.1 hPa | 0 mm | - | 861 W/m² | - |
| 1777826067 | 14.44° C | 40% | 1023.1 hPa | 0 mm | - | 855 W/m² | - |
| 1777825763 | 14.44° C | 40% | 1023.5 hPa | 0 mm | - | 845 W/m² | - |
| 1777825461 | 15° C | 41% | 1023.5 hPa | 0 mm | - | 847 W/m² | - |
| 1777825158 | 15.56° C | 40% | 1023.5 hPa | 0 mm | - | 838 W/m² | - |
| 1777824855 | 15° C | 40% | 1023.5 hPa | 0 mm | - | 829 W/m² | - |
| 1777824551 | 15° C | 41% | 1023.5 hPa | 0 mm | - | 822 W/m² | - |
| 1777824248 | 15° C | 37% | 1023.5 hPa | 0 mm | - | 810 W/m² | - |
| 1777823943 | 14.44° C | 45% | 1023.5 hPa | 0 mm | - | 802 W/m² | - |
| 1777823641 | 15.56° C | 37% | 1023.5 hPa | 0 mm | - | 799 W/m² | - |
| 1777823337 | 15.56° C | 43% | 1023.5 hPa | 0 mm | - | 793 W/m² | - |
| 1777823035 | 15.56° C | 37% | 1023.5 hPa | 0 mm | - | 786 W/m² | - |
| 1777822733 | 15° C | 41% | 1023.5 hPa | 0 mm | - | 782 W/m² | - |
| 1777822431 | 15.56° C | 42% | 1023.5 hPa | 0 mm | - | 780 W/m² | - |
| 1777822128 | 15° C | 39% | 1023.5 hPa | 0 mm | - | 763 W/m² | - |
| 1777821825 | 15.56° C | 36% | 1023.5 hPa | 0 mm | - | 751 W/m² | - |
| 1777821523 | 15.56° C | 43% | 1023.5 hPa | 0 mm | - | 736 W/m² | - |
* Rain latest hour (hover to see other rain measurements)
** Current wind speed in m/s (hover to see current wind gust speed)